QTR221 EDDH-OTHH

Flight info

Callsign QTR221
Flight time N/A
Altitude 35000
Route RAMAR6D RAMAR Z998 RATMO DCT HDO DCT LANUX DCT SASAL DCT VEBAL DCT GORAV DCT AKIKA DCT PINDO DCT PAXIS Y707 OBRAN L321 REXUM M872 BDB Y214 ASPUS Y432 LADBO T142 LAEEB
Aircraft B77W/H-SDE1E2E3FGHIJ2J3J4J5M1RWXY/LB1D1

Departure

Time 2026-05-08 07:03
Airport Hamburg Helmut Schmidt Airport (EDDH)

Arrival

Time N/A
Airport Hamad International Airport (OTHH)
Time Latitude Longitude Altitude Speed Heading
2026-05-08 06:28 53.62679 10.00328 53 ft 0 kts 63°
2026-05-08 06:50 53.62667 10.00292 49 ft 4 kts 59°
2026-05-08 06:51 53.62657 10.00258 47 ft 4 kts 90°
2026-05-08 06:51 53.62667 10.00226 47 ft 4 kts 148°
2026-05-08 06:51 53.62687 10.00208 46 ft 1 kts 153°
2026-05-08 06:54 53.62680 10.00214 48 ft 3 kts 153°
2026-05-08 06:54 53.62652 10.00238 48 ft 6 kts 153°
2026-05-08 06:55 53.62599 10.00251 49 ft 10 kts 201°
2026-05-08 06:55 53.62549 10.00136 46 ft 15 kts 246°
2026-05-08 06:55 53.62591 9.99982 49 ft 18 kts 329°
2026-05-08 06:55 53.62714 9.99875 51 ft 22 kts 334°
2026-05-08 06:56 53.62864 9.99749 50 ft 26 kts 332°
2026-05-08 06:56 53.63035 9.99599 50 ft 29 kts 333°
2026-05-08 06:56 53.63146 9.99534 51 ft 12 kts 18°
2026-05-08 06:56 53.63208 9.99642 49 ft 13 kts 50°
2026-05-08 06:57 53.63279 9.99765 52 ft 16 kts 45°
2026-05-08 06:57 53.63360 9.99924 47 ft 20 kts 50°
2026-05-08 06:57 53.63438 10.00046 49 ft 13 kts 10°
2026-05-08 06:57 53.63506 9.99947 49 ft 14 kts 304°
2026-05-08 06:58 53.63572 9.99792 49 ft 20 kts 306°
2026-05-08 06:58 53.63675 9.99552 46 ft 30 kts 306°
2026-05-08 06:58 53.63836 9.99253 46 ft 39 kts 326°
2026-05-08 06:58 53.64053 9.99059 48 ft 31 kts 333°
2026-05-08 06:59 53.64264 9.98877 48 ft 37 kts 333°
2026-05-08 06:59 53.64416 9.98746 52 ft 21 kts 332°
2026-05-08 06:59 53.64471 9.98698 48 ft 24 kts 333°
2026-05-08 06:59 53.64584 9.98600 49 ft 28 kts 333°
2026-05-08 07:00 53.64656 9.98537 49 ft 30 kts 333°
2026-05-08 07:00 53.64861 9.98360 52 ft 36 kts 333°
2026-05-08 07:00 53.65097 9.98157 52 ft 41 kts 333°
2026-05-08 07:00 53.65310 9.97971 55 ft 25 kts 333°
2026-05-08 07:01 53.65452 9.97842 55 ft 17 kts 321°
2026-05-08 07:01 53.65482 9.97741 59 ft 9 kts 274°
2026-05-08 07:01 53.65461 9.97636 57 ft 12 kts 236°
2026-05-08 07:01 53.65402 9.97568 61 ft 6 kts 189°
2026-05-08 07:02 53.65371 9.97582 60 ft 2 kts 155°
2026-05-08 07:02 53.65370 9.97583 60 ft 0 kts 155°
2026-05-08 07:02 53.65217 9.97715 56 ft 60 kts 153°
2026-05-08 07:03 53.64632 9.98220 57 ft 127 kts 152°
2026-05-08 07:03 53.63684 9.99057 61 ft 176 kts 150°
2026-05-08 07:03 53.62619 10.00110 592 ft 178 kts 138°
2026-05-08 07:03 53.61959 10.01900 1116 ft 183 kts 99°
2026-05-08 07:04 53.62114 10.03975 1926 ft 174 kts 73°
2026-05-08 07:04 53.62563 10.05992 2244 ft 195 kts 72°
2026-05-08 07:04 53.63041 10.08282 2464 ft 220 kts 74°
2026-05-08 07:04 53.63510 10.10859 2966 ft 233 kts 75°
2026-05-08 07:05 53.63587 10.11321 3108 ft 233 kts 76°